Time,TemperatureF,DewpointF,PressureIn,WindDirection,WindDirectionDegrees,WindSpeedMPH,WindSpeedGustMPH,Humidity,HourlyPrecipIn,Conditions,Clouds,dailyrainin,SoftwareType,DateUTC
2013-03-27 00:00:00,33.4,25.7,30.30,SSE,153,0.0,2.0,73,0.00,,---,0.00,VWS V14.01,2013-03-27 04:00:00,
2013-03-27 00:10:00,33.5,26.1,30.30,East,97,1.0,5.0,74,0.00,,---,0.00,VWS V14.01,2013-03-27 04:10:00,
2013-03-27 00:20:00,33.6,26.2,30.30,SE,130,0.0,4.0,74,0.00,,---,0.00,VWS V14.01,2013-03-27 04:20:00,
2013-03-27 00:30:00,33.8,26.4,30.30,East,82,0.0,4.0,74,0.00,,---,0.00,VWS V14.01,2013-03-27 04:30:00,
2013-03-27 00:40:00,34.0,26.3,30.30,SE,131,2.0,5.0,73,0.00,,---,0.00,VWS V14.01,2013-03-27 04:40:00,
2013-03-27 00:50:00,34.1,26.7,30.31,WNW,294,1.0,3.0,74,0.00,,---,0.00,VWS V14.01,2013-03-27 04:50:00,
2013-03-27 01:00:00,34.2,26.8,30.31,SW,232,0.0,4.0,74,0.00,,---,0.00,VWS V14.01,2013-03-27 05:00:00,
2013-03-27 01:10:00,34.2,26.5,30.30,SW,235,0.0,3.0,73,0.00,,---,0.00,VWS V14.01,2013-03-27 05:10:00,
2013-03-27 01:20:00,34.2,26.8,30.30,WSW,246,4.0,4.0,74,0.00,,---,0.00,VWS V14.01,2013-03-27 05:20:00,
2013-03-27 01:30:00,34.2,26.8,30.30,SSE,160,1.0,6.0,74,0.00,,---,0.00,VWS V14.01,2013-03-27 05:30:00,
2013-03-27 01:40:00,34.0,26.9,30.31,North,5,0.0,3.0,75,0.00,,---,0.00,VWS V14.01,2013-03-27 05:40:00,
2013-03-27 01:50:00,33.8,26.7,30.30,SE,141,2.0,3.0,75,0.00,,---,0.00,VWS V14.01,2013-03-27 05:50:00,
2013-03-27 02:00:00,33.6,26.5,30.30,SE,132,0.0,5.0,75,0.00,,---,0.00,VWS V14.01,2013-03-27 06:00:00,
2013-03-27 02:10:00,33.6,26.9,30.31,SE,146,0.0,7.0,76,0.00,,---,0.00,VWS V14.01,2013-03-27 06:10:00,
2013-03-27 02:20:00,33.7,27.0,30.30,West,259,1.0,5.0,76,0.00,,---,0.00,VWS V14.01,2013-03-27 06:20:00,
2013-03-27 02:30:00,33.7,27.0,30.30,WSW,247,4.0,5.0,76,0.00,,---,0.00,VWS V14.01,2013-03-27 06:30:00,
2013-03-27 02:40:00,33.7,27.3,30.30,West,267,0.0,8.0,77,0.00,,---,0.00,VWS V14.01,2013-03-27 06:40:00,
2013-03-27 02:50:00,33.3,27.2,30.30,North,355,0.0,3.0,78,0.00,,---,0.00,VWS V14.01,2013-03-27 06:50:00,
2013-03-27 03:00:00,33.1,27.0,30.30,WSW,254,0.0,2.0,78,0.00,,---,0.00,VWS V14.01,2013-03-27 07:00:00,
2013-03-27 03:10:00,32.6,26.8,30.30,SE,134,0.0,3.0,79,0.00,,---,0.00,VWS V14.01,2013-03-27 07:10:00,
2013-03-27 03:20:00,32.4,26.9,30.30,South,178,0.0,3.0,80,0.00,,---,0.00,VWS V14.01,2013-03-27 07:20:00,
2013-03-27 03:30:00,32.1,26.6,30.30,WSW,258,0.0,3.0,80,0.00,,---,0.00,VWS V14.01,2013-03-27 07:30:00,
2013-03-27 03:40:00,31.8,26.6,30.30,South,178,0.0,2.0,81,0.00,,---,0.00,VWS V14.01,2013-03-27 07:40:00,
2013-03-27 03:50:00,31.5,26.6,30.30,SSW,211,0.0,2.0,82,0.00,,---,0.00,VWS V14.01,2013-03-27 07:50:00,
2013-03-27 04:00:00,31.4,26.5,30.30,NW,323,0.0,4.0,82,0.00,,---,0.00,VWS V14.01,2013-03-27 08:00:00,
2013-03-27 04:10:00,31.2,26.6,30.30,South,182,1.0,1.0,83,0.00,,---,0.00,VWS V14.01,2013-03-27 08:10:00,
2013-03-27 04:20:00,31.1,26.5,30.30,SE,132,0.0,3.0,83,0.00,,---,0.00,VWS V14.01,2013-03-27 08:20:00,
2013-03-27 04:30:00,30.9,26.4,30.30,SE,134,0.0,3.0,83,0.00,,---,0.00,VWS V14.01,2013-03-27 08:30:00,
2013-03-27 04:40:00,30.6,26.4,30.30,SE,129,0.0,2.0,84,0.00,,---,0.00,VWS V14.01,2013-03-27 08:40:00,
2013-03-27 04:50:00,30.6,26.4,30.31,SE,128,0.0,1.0,84,0.00,,---,0.00,VWS V14.01,2013-03-27 08:50:00,
2013-03-27 05:00:00,30.5,26.2,30.31,South,174,0.0,2.0,84,0.00,,---,0.00,VWS V14.01,2013-03-27 09:00:00,
2013-03-27 05:10:00,30.3,26.3,30.31,South,174,0.0,1.0,85,0.00,,---,0.00,VWS V14.01,2013-03-27 09:10:00,
2013-03-27 05:20:00,30.3,26.3,30.31,SSW,197,0.0,3.0,85,0.00,,---,0.00,VWS V14.01,2013-03-27 09:20:00,
2013-03-27 05:30:00,30.2,26.5,30.31,SSW,197,0.0,2.0,86,0.00,,---,0.00,VWS V14.01,2013-03-27 09:30:00,
2013-03-27 05:40:00,30.1,26.4,30.31,SSW,207,0.0,3.0,86,0.00,,---,0.00,VWS V14.01,2013-03-27 09:40:00,
2013-03-27 05:50:00,30.1,26.1,30.31,SSW,203,0.0,1.0,85,0.00,,---,0.00,VWS V14.01,2013-03-27 09:50:00,
2013-03-27 06:00:00,29.9,26.2,30.31,ESE,115,0.0,2.0,86,0.00,,---,0.00,VWS V14.01,2013-03-27 10:00:00,
2013-03-27 06:10:00,29.9,26.2,30.31,SSW,205,0.0,2.0,86,0.00,,---,0.00,VWS V14.01,2013-03-27 10:10:00,
2013-03-27 06:20:00,29.8,26.1,30.32,SSW,209,0.0,1.0,86,0.00,,---,0.00,VWS V14.01,2013-03-27 10:20:00,
2013-03-27 06:30:00,29.7,26.0,30.32,SE,125,0.0,3.0,86,0.00,,---,0.00,VWS V14.01,2013-03-27 10:30:00,
2013-03-27 06:40:00,29.5,26.1,30.32,SSW,195,0.0,2.0,87,0.00,,---,0.00,VWS V14.01,2013-03-27 10:40:00,
2013-03-27 06:50:00,29.3,25.9,30.32,SSW,195,0.0,1.0,87,0.00,,---,0.00,VWS V14.01,2013-03-27 10:50:00,
2013-03-27 07:00:00,29.0,25.6,30.32,SSW,195,0.0,0.0,87,0.00,,---,0.00,VWS V14.01,2013-03-27 11:00:00,
2013-03-27 07:10:00,28.9,25.8,30.33,South,184,0.0,2.0,88,0.00,,---,0.00,VWS V14.01,2013-03-27 11:10:00,
2013-03-27 07:20:00,29.0,25.9,30.33,ESE,123,0.0,2.0,88,0.00,,---,0.00,VWS V14.01,2013-03-27 11:20:00,
2013-03-27 07:30:00,28.9,25.8,30.33,South,169,0.0,1.0,88,0.01,,---,0.01,VWS V14.01,2013-03-27 11:30:00,
2013-03-27 07:40:00,28.9,25.8,30.33,West,279,0.0,1.0,88,0.01,,---,0.01,VWS V14.01,2013-03-27 11:40:00,
2013-03-27 07:50:00,28.9,25.8,30.33,WSW,251,0.0,0.0,88,0.01,,---,0.01,VWS V14.01,2013-03-27 11:50:00,
2013-03-27 08:00:00,29.2,26.1,30.34,West,271,1.0,3.0,88,0.01,,---,0.01,VWS V14.01,2013-03-27 12:00:00,
2013-03-27 08:10:00,29.7,26.6,30.34,West,263,0.0,3.0,88,0.01,,---,0.01,VWS V14.01,2013-03-27 12:10:00,
2013-03-27 08:20:00,30.2,27.1,30.34,West,261,2.0,3.0,88,0.01,,---,0.01,VWS V14.01,2013-03-27 12:20:00,
2013-03-27 08:30:00,31.0,27.3,30.35,West,275,3.0,4.0,86,0.01,,---,0.01,VWS V14.01,2013-03-27 12:30:00,
2013-03-27 08:40:00,31.7,27.7,30.35,West,266,0.0,3.0,85,0.00,,---,0.01,VWS V14.01,2013-03-27 12:40:00,
2013-03-27 08:50:00,32.2,27.9,30.35,WSW,257,1.0,5.0,84,0.00,,---,0.01,VWS V14.01,2013-03-27 12:50:00,
2013-03-27 09:00:00,32.7,28.1,30.36,West,278,3.0,4.0,83,0.00,,---,0.01,VWS V14.01,2013-03-27 13:00:00,
2013-03-27 09:10:00,33.2,28.3,30.36,West,269,2.0,5.0,82,0.00,,---,0.01,VWS V14.01,2013-03-27 13:10:00,
2013-03-27 09:20:00,33.6,28.4,30.36,WSW,257,3.0,5.0,81,0.00,,---,0.01,VWS V14.01,2013-03-27 13:20:00,
2013-03-27 09:30:00,34.2,28.7,30.37,West,260,2.0,6.0,80,0.00,,---,0.01,VWS V14.01,2013-03-27 13:30:00,
2013-03-27 09:40:00,34.9,29.4,30.36,West,268,1.0,5.0,80,0.00,,---,0.01,VWS V14.01,2013-03-27 13:40:00,
2013-03-27 09:50:00,36.0,29.8,30.36,WNW,286,3.0,3.0,78,0.00,,---,0.01,VWS V14.01,2013-03-27 13:50:00,
2013-03-27 10:00:00,36.9,30.7,30.36,WSW,251,2.0,6.0,78,0.00,,---,0.01,VWS V14.01,2013-03-27 14:00:00,
2013-03-27 10:10:00,37.6,30.7,30.36,West,268,2.0,6.0,76,0.00,,---,0.01,VWS V14.01,2013-03-27 14:10:00,
2013-03-27 10:20:00,38.3,30.8,30.36,West,265,1.0,7.0,74,0.00,,---,0.01,VWS V14.01,2013-03-27 14:20:00,
2013-03-27 10:30:00,39.0,30.8,30.37,West,275,2.0,5.0,72,0.00,,---,0.01,VWS V14.01,2013-03-27 14:30:00,
2013-03-27 10:40:00,39.1,30.5,30.37,WSW,252,2.0,7.0,71,0.00,,---,0.01,VWS V14.01,2013-03-27 14:40:00,
2013-03-27 10:50:00,39.5,31.2,30.37,West,271,1.0,7.0,72,0.00,,---,0.01,VWS V14.01,2013-03-27 14:50:00,
2013-03-27 11:00:00,39.9,31.6,30.37,SW,222,1.0,7.0,72,0.00,,---,0.01,VWS V14.01,2013-03-27 15:00:00,
2013-03-27 11:10:00,40.9,32.6,30.37,West,281,2.0,8.0,72,0.00,,---,0.01,VWS V14.01,2013-03-27 15:10:00,
2013-03-27 11:20:00,41.4,30.5,30.38,WSW,254,0.0,8.0,65,0.00,,---,0.01,VWS V14.01,2013-03-27 15:20:00,
2013-03-27 11:30:00,41.7,31.6,30.38,WNW,302,1.0,7.0,67,0.00,,---,0.01,VWS V14.01,2013-03-27 15:30:00,
2013-03-27 11:40:00,41.9,29.5,30.38,NW,316,1.0,5.0,61,0.00,,---,0.01,VWS V14.01,2013-03-27 15:40:00,
2013-03-27 11:50:00,42.6,31.7,30.37,NW,320,2.0,4.0,65,0.00,,---,0.01,VWS V14.01,2013-03-27 15:50:00,
2013-03-27 12:00:00,42.7,30.6,30.37,WNW,292,2.0,7.0,62,0.00,,---,0.01,VWS V14.01,2013-03-27 16:00:00,
2013-03-27 12:10:00,43.3,30.0,30.37,NE,49,2.0,8.0,59,0.00,,---,0.01,VWS V14.01,2013-03-27 16:10:00,
2013-03-27 12:20:00,43.2,30.3,30.37,East,85,1.0,5.0,60,0.00,,---,0.01,VWS V14.01,2013-03-27 16:20:00,
2013-03-27 12:30:00,43.1,30.2,30.36,WNW,289,2.0,6.0,60,0.00,,---,0.01,VWS V14.01,2013-03-27 16:30:00,
2013-03-27 12:40:00,43.3,31.2,30.36,NE,38,1.0,4.0,62,0.00,,---,0.01,VWS V14.01,2013-03-27 16:40:00,
2013-03-27 12:50:00,43.4,30.9,30.36,NE,37,1.0,4.0,61,0.00,,---,0.01,VWS V14.01,2013-03-27 16:50:00,
2013-03-27 13:00:00,43.6,31.0,30.35,NNE,23,0.0,6.0,61,0.00,,---,0.01,VWS V14.01,2013-03-27 17:00:00,
2013-03-27 13:10:00,44.0,30.2,30.36,NE,36,2.0,7.0,58,0.00,,---,0.01,VWS V14.01,2013-03-27 17:10:00,
2013-03-27 13:20:00,43.9,29.2,30.35,West,277,0.0,4.0,56,0.00,,---,0.01,VWS V14.01,2013-03-27 17:20:00,
2013-03-27 13:30:00,44.2,30.0,30.35,North,5,0.0,7.0,57,0.00,,---,0.01,VWS V14.01,2013-03-27 17:30:00,
2013-03-27 13:40:00,43.4,27.9,30.35,West,274,3.0,8.0,54,0.00,,---,0.01,VWS V14.01,2013-03-27 17:40:00,
2013-03-27 13:50:00,42.9,28.7,30.35,NW,315,1.0,6.0,57,0.00,,---,0.01,VWS V14.01,2013-03-27 17:50:00,
2013-03-27 14:00:00,42.7,27.7,30.35,NE,53,3.0,4.0,55,0.00,,---,0.01,VWS V14.01,2013-03-27 18:00:00,
2013-03-27 14:10:00,43.5,27.1,30.35,West,261,2.0,9.0,52,0.00,,---,0.01,VWS V14.01,2013-03-27 18:10:00,
2013-03-27 14:20:00,43.6,27.6,30.36,NW,311,1.0,6.0,53,0.00,,---,0.01,VWS V14.01,2013-03-27 18:20:00,
2013-03-27 14:30:00,43.4,27.4,30.35,West,265,3.0,6.0,53,0.00,,---,0.01,VWS V14.01,2013-03-27 18:30:00,
2013-03-27 14:40:00,43.6,28.5,30.35,West,269,3.0,6.0,55,0.00,,---,0.01,VWS V14.01,2013-03-27 18:40:00,
2013-03-27 14:50:00,44.3,26.9,30.34,WNW,286,1.0,13.0,50,0.00,,---,0.01,VWS V14.01,2013-03-27 18:50:00,
2013-03-27 15:00:00,43.8,26.4,30.34,East,85,3.0,7.0,50,0.00,,---,0.01,VWS V14.01,2013-03-27 19:00:00,
2013-03-27 15:10:00,43.4,27.4,30.35,NNE,21,2.0,6.0,53,0.00,,---,0.01,VWS V14.01,2013-03-27 19:10:00,
2013-03-27 15:20:00,43.8,28.7,30.34,SE,134,1.0,6.0,55,0.00,,---,0.01,VWS V14.01,2013-03-27 19:20:00,
2013-03-27 15:30:00,44.2,27.2,30.34,NNE,28,0.0,4.0,51,0.00,,---,0.01,VWS V14.01,2013-03-27 19:30:00,
2013-03-27 15:40:00,44.0,27.0,30.34,WNW,284,1.0,6.0,51,0.00,,---,0.01,VWS V14.01,2013-03-27 19:40:00,
2013-03-27 15:50:00,43.3,27.8,30.34,NNE,14,1.0,10.0,54,0.00,,---,0.01,VWS V14.01,2013-03-27 19:50:00,
2013-03-27 16:00:00,42.9,28.3,30.34,WNW,294,1.0,9.0,56,0.00,,---,0.01,VWS V14.01,2013-03-27 20:00:00,
2013-03-27 16:10:00,42.7,29.8,30.34,NNE,30,0.0,6.0,60,0.00,,---,0.01,VWS V14.01,2013-03-27 20:10:00,
2013-03-27 16:20:00,42.9,27.9,30.34,West,267,3.0,5.0,55,0.00,,---,0.01,VWS V14.01,2013-03-27 20:20:00,
2013-03-27 16:30:00,43.2,27.7,30.34,East,79,0.0,7.0,54,0.00,,---,0.01,VWS V14.01,2013-03-27 20:30:00,
2013-03-27 16:40:00,43.2,29.4,30.34,NNE,32,1.0,8.0,58,0.00,,---,0.01,VWS V14.01,2013-03-27 20:40:00,
2013-03-27 16:50:00,43.4,28.8,30.34,ENE,65,1.0,8.0,56,0.00,,---,0.01,VWS V14.01,2013-03-27 20:50:00,
2013-03-27 17:00:00,43.2,27.7,30.34,SSE,156,1.0,6.0,54,0.00,,---,0.01,VWS V14.01,2013-03-27 21:00:00,
2013-03-27 17:10:00,42.6,27.6,30.34,NNW,337,0.0,4.0,55,0.00,,---,0.01,VWS V14.01,2013-03-27 21:10:00,
2013-03-27 17:20:00,42.1,28.0,30.34,NNE,22,0.0,4.0,57,0.00,,---,0.01,VWS V14.01,2013-03-27 21:20:00,
2013-03-27 17:30:00,41.9,27.8,30.34,West,262,1.0,8.0,57,0.00,,---,0.01,VWS V14.01,2013-03-27 21:30:00,
2013-03-27 17:40:00,42.0,27.9,30.33,ESE,107,0.0,4.0,57,0.00,,---,0.01,VWS V14.01,2013-03-27 21:40:00,
2013-03-27 17:50:00,42.1,28.4,30.33,NNE,24,2.0,2.0,58,0.00,,---,0.01,VWS V14.01,2013-03-27 21:50:00,
2013-03-27 18:00:00,42.3,28.2,30.34,NNE,24,0.0,4.0,57,0.00,,---,0.01,VWS V14.01,2013-03-27 22:00:00,
2013-03-27 18:10:00,42.8,28.2,30.33,West,279,1.0,4.0,56,0.00,,---,0.01,VWS V14.01,2013-03-27 22:10:00,
2013-03-27 18:20:00,42.6,27.6,30.33,North,355,1.0,9.0,55,0.00,,---,0.01,VWS V14.01,2013-03-27 22:20:00,
2013-03-27 18:30:00,42.2,28.5,30.33,North,350,1.0,4.0,58,0.00,,---,0.01,VWS V14.01,2013-03-27 22:30:00,
2013-03-27 18:40:00,42.0,27.9,30.33,WNW,303,0.0,3.0,57,0.00,,---,0.01,VWS V14.01,2013-03-27 22:40:00,
2013-03-27 18:50:00,42.0,28.3,30.34,ENE,57,3.0,5.0,58,0.00,,---,0.01,VWS V14.01,2013-03-27 22:50:00,
2013-03-27 19:00:00,41.8,27.3,30.34,West,266,4.0,7.0,56,0.00,,---,0.01,VWS V14.01,2013-03-27 23:00:00,
2013-03-27 19:10:00,41.6,27.1,30.34,West,279,0.0,9.0,56,0.00,,---,0.01,VWS V14.01,2013-03-27 23:10:00,
2013-03-27 19:20:00,41.4,27.8,30.35,WSW,246,0.0,5.0,58,0.00,,---,0.01,VWS V14.01,2013-03-27 23:20:00,
2013-03-27 19:30:00,41.2,27.6,30.35,SSE,161,0.0,3.0,58,0.00,,---,0.01,VWS V14.01,2013-03-27 23:30:00,
2013-03-27 19:40:00,41.0,28.2,30.35,North,5,0.0,3.0,60,0.00,,---,0.01,VWS V14.01,2013-03-27 23:40:00,
2013-03-27 19:50:00,40.7,27.9,30.35,North,5,0.0,1.0,60,0.00,,---,0.01,VWS V14.01,2013-03-27 23:50:00,
2013-03-27 20:00:00,40.4,27.2,30.35,West,269,0.0,2.0,59,0.00,,---,0.01,VWS V14.01,2013-03-28 00:00:00,
2013-03-27 20:10:00,40.1,27.8,30.35,ESE,123,1.0,2.0,61,0.00,,---,0.01,VWS V14.01,2013-03-28 00:10:00,
2013-03-27 20:20:00,39.9,27.6,30.35,ESE,123,0.0,1.0,61,0.00,,---,0.01,VWS V14.01,2013-03-28 00:20:00,
2013-03-27 20:30:00,39.7,27.8,30.35,ESE,123,0.0,1.0,62,0.00,,---,0.01,VWS V14.01,2013-03-28 00:30:00,
2013-03-27 20:40:00,39.4,27.1,30.35,ESE,123,0.0,1.0,61,0.00,,---,0.01,VWS V14.01,2013-03-28 00:40:00,
2013-03-27 20:50:00,39.2,26.9,30.35,ESE,123,0.0,1.0,61,0.00,,---,0.01,VWS V14.01,2013-03-28 00:50:00,
2013-03-27 21:00:00,39.0,27.5,30.35,ESE,123,0.0,2.0,63,0.00,,---,0.01,VWS V14.01,2013-03-28 01:00:00,
2013-03-27 21:10:00,38.7,27.6,30.35,SE,128,0.0,1.0,64,0.00,,---,0.01,VWS V14.01,2013-03-28 01:10:00,
2013-03-27 21:20:00,38.4,27.3,30.35,SE,128,0.0,1.0,64,0.00,,---,0.01,VWS V14.01,2013-03-28 01:20:00,
2013-03-27 21:30:00,38.0,26.9,30.35,SE,128,0.0,1.0,64,0.00,,---,0.01,VWS V14.01,2013-03-28 01:30:00,
2013-03-27 21:40:00,37.7,26.6,30.36,SE,128,0.0,0.0,64,0.00,,---,0.01,VWS V14.01,2013-03-28 01:40:00,
2013-03-27 21:50:00,37.5,26.5,30.36,SE,128,0.0,1.0,64,0.00,,---,0.01,VWS V14.01,2013-03-28 01:50:00,
2013-03-27 22:00:00,37.2,26.5,30.36,SE,128,0.0,0.0,65,0.00,,---,0.01,VWS V14.01,2013-03-28 02:00:00,
2013-03-27 22:10:00,37.1,26.8,30.36,SE,128,0.0,1.0,66,0.00,,---,0.01,VWS V14.01,2013-03-28 02:10:00,
2013-03-27 22:20:00,36.7,26.4,30.36,SE,128,0.0,0.0,66,0.00,,---,0.01,VWS V14.01,2013-03-28 02:20:00,
2013-03-27 22:30:00,36.3,26.4,30.36,SE,128,0.0,0.0,67,0.00,,---,0.01,VWS V14.01,2013-03-28 02:30:00,
2013-03-27 22:40:00,36.0,26.1,30.37,SE,128,0.0,0.0,67,0.00,,---,0.01,VWS V14.01,2013-03-28 02:40:00,
2013-03-27 22:50:00,36.1,25.9,30.37,SE,128,1.0,1.0,66,0.00,,---,0.01,VWS V14.01,2013-03-28 02:50:00,
2013-03-27 23:00:00,36.2,26.3,30.36,SE,128,0.0,1.0,67,0.00,,---,0.01,VWS V14.01,2013-03-28 03:00:00,
2013-03-27 23:10:00,36.0,26.1,30.36,SE,128,0.0,0.0,67,0.00,,---,0.01,VWS V14.01,2013-03-28 03:10:00,
2013-03-27 23:20:00,35.7,26.2,30.36,SE,128,0.0,0.0,68,0.00,,---,0.01,VWS V14.01,2013-03-28 03:20:00,
2013-03-27 23:30:00,35.3,26.5,30.36,SE,128,0.0,0.0,70,0.00,,---,0.01,VWS V14.01,2013-03-28 03:30:00,
2013-03-27 23:40:00,34.7,26.3,30.37,SE,128,0.0,0.0,71,0.00,,---,0.01,VWS V14.01,2013-03-28 03:40:00,
2013-03-27 23:50:00,34.3,26.2,30.36,SE,128,0.0,0.0,72,0.00,,---,0.01,VWS V14.01,2013-03-28 03:50:00,